Location: Aurora Center
(43.5271°N, 98.5894°W)
Time: 01:52:52
(UTC-05:00)

BlueWalker 3 - Pass Details

Date: 21 June 2024
Orbit: 480 x 492 km, 53.2° (Epoch: 15 July)

Event Time Altitude Azimuth Distance (km) Brightness Sun altitude
Rises 03:07:42 0° 307° (NW) 2,539 5.7 -19.8°
Reaches altitude 10° 03:10:00 10° 317° (NW) 1,658 4.8 -19.7°
Maximum altitude 03:13:28 36° 25° (NNE) 778 3.5 -19.4°
Drops below altitude 10° 03:16:57 10° 94° (E) 1,654 4.8 -19.2°
Sets 03:19:13 0° 103° (ESE) 2,532 5.7 -19.0°
